TimeEEST,TemperatureF,Dew PointF,Humidity,Sea Level PressureIn,VisibilityMPH,Wind Direction,Wind SpeedMPH,Gust SpeedMPH,PrecipitationIn,Events,Conditions,WindDirDegrees,DateUTC
12:20 AM,73.4,51.8,47,29.92,-9999.0,NNW,4.6,-,N/A,,Clear,340,2012-09-14 21:20:00
12:50 AM,77.0,51.8,41,29.92,-9999.0,Variable,2.3,-,N/A,,Clear,0,2012-09-14 21:50:00
1:20 AM,75.2,53.6,47,29.92,-9999.0,NW,3.5,-,N/A,,Clear,310,2012-09-14 22:20:00
1:50 AM,75.2,53.6,47,29.92,-9999.0,ESE,3.5,-,N/A,,Clear,110,2012-09-14 22:50:00
2:20 AM,75.2,53.6,47,29.92,-9999.0,ESE,3.5,-,N/A,,Clear,120,2012-09-14 23:20:00
2:50 AM,71.6,57.2,60,29.89,-9999.0,ESE,2.3,-,N/A,,Clear,120,2012-09-14 23:50:00
3:00 AM,71,56,48,29.91,6,ESE,2.3,,,,,120,2012-09-15 00:00:00
3:20 AM,69.8,59.0,68,29.89,-9999.0,Variable,1.2,-,N/A,,Clear,0,2012-09-15 00:20:00
3:50 AM,69.8,60.8,73,29.89,-9999.0,Variable,1.2,-,N/A,,Clear,0,2012-09-15 00:50:00
4:20 AM,69.8,64.4,83,29.89,-9999.0,Calm,Calm,-,N/A,,Clear,0,2012-09-15 01:20:00
4:50 AM,69.8,66.2,88,29.86,-9999.0,SSW,3.5,-,N/A,,Clear,200,2012-09-15 01:50:00
5:20 AM,69.8,68.0,94,29.86,-9999.0,Variable,2.3,-,N/A,,Clear,0,2012-09-15 02:20:00
5:50 AM,68.0,64.4,88,29.86,-9999.0,Variable,2.3,-,N/A,,Clear,0,2012-09-15 02:50:00
6:20 AM,69.8,66.2,88,29.86,-9999.0,NNW,2.3,-,N/A,,Clear,340,2012-09-15 03:20:00
6:50 AM,69.8,68.0,94,29.89,-9999.0,Calm,Calm,-,N/A,,Clear,0,2012-09-15 03:50:00
7:20 AM,69.8,66.2,88,29.86,-9999.0,Variable,2.3,-,N/A,,Clear,0,2012-09-15 04:20:00
7:50 AM,71.6,68.0,88,29.89,-9999.0,East,4.6,-,N/A,,Clear,100,2012-09-15 04:50:00
8:20 AM,75.2,66.2,73,29.89,-9999.0,Variable,2.3,-,N/A,,Clear,0,2012-09-15 05:20:00
8:50 AM,75.2,64.4,69,29.89,-9999.0,Variable,2.3,-,N/A,,Clear,0,2012-09-15 05:50:00
9:00 AM,76,63,56,29.89,6,WSW,2.3,,,,,250,2012-09-15 06:00:00
9:20 AM,75.2,64.4,69,29.89,-9999.0,West,4.6,-,N/A,,Clear,260,2012-09-15 06:20:00
9:50 AM,75.2,64.4,69,29.89,-9999.0,SW,3.5,-,N/A,,Clear,230,2012-09-15 06:50:00
10:20 AM,77.0,64.4,65,29.92,-9999.0,WSW,5.8,-,N/A,,Clear,250,2012-09-15 07:20:00
10:50 AM,77.0,64.4,65,29.89,-9999.0,WSW,6.9,-,N/A,,Clear,250,2012-09-15 07:50:00
11:20 AM,78.8,64.4,61,29.89,-9999.0,WSW,5.8,-,N/A,,Clear,240,2012-09-15 08:20:00
11:50 AM,80.6,64.4,58,29.89,-9999.0,WSW,5.8,-,N/A,,Clear,250,2012-09-15 08:50:00
12:20 PM,80.6,62.6,54,29.89,-9999.0,WSW,6.9,-,N/A,,Clear,240,2012-09-15 09:20:00
12:50 PM,80.6,60.8,51,29.89,-9999.0,SW,9.2,-,N/A,,Clear,230,2012-09-15 09:50:00
1:20 PM,80.6,60.8,51,29.89,-9999.0,SW,6.9,-,N/A,,Clear,230,2012-09-15 10:20:00
1:50 PM,82.4,59.0,45,29.86,-9999.0,SSW,5.8,-,N/A,,Clear,210,2012-09-15 10:50:00
2:20 PM,82.4,55.4,39,29.86,-9999.0,SW,6.9,-,N/A,,Clear,220,2012-09-15 11:20:00
2:50 PM,82.4,57.2,42,29.83,-9999.0,SSW,5.8,-,N/A,,Clear,210,2012-09-15 11:50:00
3:00 PM,83,55,28,29.84,6,SSW,5.8,,,,,210,2012-09-15 12:00:00
3:20 PM,82.4,59.0,45,29.83,-9999.0,SW,4.6,-,N/A,,Clear,220,2012-09-15 12:20:00
3:50 PM,84.2,55.4,37,29.83,-9999.0,WSW,4.6,-,N/A,,Clear,240,2012-09-15 12:50:00
4:20 PM,84.2,51.8,33,29.80,-9999.0,WSW,4.6,-,N/A,,Clear,240,2012-09-15 13:20:00
4:50 PM,87.8,50.0,27,29.80,-9999.0,Variable,2.3,-,N/A,,Clear,0,2012-09-15 13:50:00
5:20 PM,86.0,53.6,33,29.80,-9999.0,West,4.6,-,N/A,,Clear,260,2012-09-15 14:20:00
5:50 PM,84.2,57.2,40,29.80,-9999.0,SW,4.6,-,N/A,,Clear,230,2012-09-15 14:50:00
6:20 PM,86.0,55.4,35,29.80,-9999.0,SW,3.5,-,N/A,,Clear,230,2012-09-15 15:20:00
6:50 PM,87.8,48.2,25,29.80,-9999.0,NNE,8.1,-,N/A,,Clear,30,2012-09-15 15:50:00
7:20 PM,86.0,51.8,31,29.80,-9999.0,NE,9.2,-,N/A,,Clear,50,2012-09-15 16:20:00
7:50 PM,84.2,51.8,33,29.80,-9999.0,NE,8.1,-,N/A,,Clear,50,2012-09-15 16:50:00
8:20 PM,84.2,50.0,30,29.83,-9999.0,Variable,5.8,-,N/A,,Clear,0,2012-09-15 17:20:00
8:50 PM,86.0,50.0,29,29.83,-9999.0,Variable,6.9,-,N/A,,Clear,0,2012-09-15 17:50:00
9:00 PM,86,49,18,29.82,6,ENE,6.9,,,,Partly Cloudy,70,2012-09-15 18:00:00
9:20 PM,82.4,50.0,32,29.83,-9999.0,NNW,6.9,-,N/A,,Clear,330,2012-09-15 18:20:00
9:50 PM,80.6,50.0,34,29.83,-9999.0,North,5.8,-,N/A,,Clear,350,2012-09-15 18:50:00
10:20 PM,80.6,50.0,34,29.83,-9999.0,North,11.5,-,N/A,,Clear,350,2012-09-15 19:20:00
10:50 PM,80.6,50.0,34,29.83,-9999.0,North,6.9,-,N/A,,Clear,10,2012-09-15 19:50:00
11:20 PM,78.8,50.0,36,29.83,-9999.0,NNW,5.8,-,N/A,,Clear,340,2012-09-15 20:20:00
11:50 PM,78.8,50.0,36,29.83,6.2,North,6.9,-,N/A,,Scattered Clouds,350,2012-09-15 20:50:00